Location: Rometta
(44.2000°N, 10.0500°E)
Time: 17:09:19
(UTC+00:00)

Cosmos 1844 Rocket - Pass Details

Date: 20 January 2021
Orbit: 825 x 843 km, 71.0° (Epoch: 01 March)

Event Time Altitude Azimuth Distance (km) Brightness Sun altitude
Rises 18:07:06 0° 208° (SSW) 3,387 6.4 -20.1°
Reaches altitude 10° 18:09:32 10° 210° (SSW) 2,456 5.6 -20.5°
Maximum altitude 18:15:11 76° 296° (WNW) 870 2.8 -21.5°
Enters shadow 18:19:08 21° 20° (NNE) 1,833 4.2 -22.2°
